Tracking 25701 objects as of 3-Jul-2022
HD Live streaming from Space Station
objects crossing your sky now

FENGYUN 1C DEB

Track FENGYUN 1C DEB now!
10-day predictions


NORAD ID: 35213
Int'l Code: 1999-025DPV
Perigee: 502.6 km
Apogee: 705.1 km
Inclination: 98.4 °
Period: 96.6 minutes
Semi major axis: 6974 km
RCS: 0.006 m2 (small)
Launch date: May 10, 1999
Source: People's Republic of China (PRC)
Launch site: Taiyaun Space Center, China (TSC)

Note: This is SATELLITE DEBRIS
aabbcc
Your satellite tracking list
Your tracking list is empty




NASA's NSSDC Master Catalog

Two Line Element Set (TLE):
1 35213U 99025DPV 22183.21636984  .00008600  00000-0  72806-3 0  9994
2 35213  98.4372  94.3121 0145150  78.9136 282.8363 14.90393702738669
Source of the keplerian elements: AFSPC